Terug naar catalogus

TIROS 8 DEB

ActiefVLEO
NORAD 19396·DEBRIS·🇺🇸 United States

Gelanceerd Dec 21, 1963 vanaf Vandenberg Space Force Base

Loading…

Volgende Passages (komende 24 uur)

TLE

VersSource: Space-Track

Epoch: Sep 14, 2026, 11:33 UTC

1 19396U 63054E   26257.48151381  .00004268  00000-0  23391-3 0  9990
2 19396  58.4643 278.4354 0015723 147.8271 212.3752 15.16025086 47996

Volg TIROS 8 DEB in realtime met AllMySat

Download on the App Store